• în Republica Moldova
  • Lista ţărilor
  • Pe 7 zile
  • Temperatura apei
  • Hartă satelitară
  • Meteo pe hartă
  • Widget-uri
  • user-avatar
    Intrare

    Meteo pe oră la Albany

    Astăzi, 17 Iunie, Luni

    Timp Temperatura Precipitaţii Vânt Presiune Umiditate
    00:00 +10°C° 0 mm 5 m/s 766 mmHg 79%
    01:00 +10°C° 0 mm 5 m/s 766 mmHg 76%
    02:00 +11°C° 0 mm 4 m/s 766 mmHg 72%
    03:00 +11°C° 0 mm 4 m/s 766 mmHg 71%
    04:00 +11°C° 0 mm 4 m/s 767 mmHg 70%
    05:00 +11°C° 0 mm 4 m/s 767 mmHg 68%
    06:00 +11°C° 0 mm 4 m/s 768 mmHg 69%
    07:00 +11°C° 0 mm 4 m/s 768 mmHg 69%
    08:00 +11°C° 0 mm 3 m/s 768 mmHg 71%
    09:00 +11°C° 0 mm 3 m/s 768 mmHg 70%
    10:00 +12°C° 0 mm 3 m/s 769 mmHg 70%
    11:00 +13°C° 0 mm 2 m/s 769 mmHg 69%
    12:00 +13°C° 0 mm 2 m/s 768 mmHg 68%
    13:00 +13°C° 0 mm 2 m/s 768 mmHg 67%
    14:00 +14°C° 0 mm 2 m/s 768 mmHg 66%
    15:00 +13°C° 0 mm 2 m/s 768 mmHg 68%
    16:00 +12°C° 0 mm 2 m/s 768 mmHg 70%
    17:00 +12°C° 0 mm 1 m/s 768 mmHg 72%
    18:00 +12°C° 0 mm 1 m/s 768 mmHg 72%
    19:00 +12°C° 0 mm 1 m/s 768 mmHg 71%
    20:00 +11°C° 0 mm 0 m/s 768 mmHg 70%
    21:00 +11°C° 0 mm 1 m/s 768 mmHg 71%
    22:00 +11°C° 0 mm 1 m/s 768 mmHg 72%
    23:00 +11°C° 0 mm 1 m/s 768 mmHg 73%

    Mâine, 18 Iunie, Marţi

    Timp Temperatura Precipitaţii Vânt Presiune Umiditate
    00:00 +11°C° 0 mm 1 m/s 768 mmHg 73%
    01:00 +10°C° 0 mm 2 m/s 767 mmHg 73%
    02:00 +10°C° 0 mm 2 m/s 767 mmHg 73%
    03:00 +9°C° 0 mm 2 m/s 767 mmHg 74%
    04:00 +9°C° 0 mm 2 m/s 767 mmHg 75%
    05:00 +8°C° 0 mm 3 m/s 767 mmHg 76%
    06:00 +8°C° 0 mm 3 m/s 767 mmHg 76%
    07:00 +7°C° 0 mm 3 m/s 767 mmHg 77%
    08:00 +7°C° 0 mm 3 m/s 767 mmHg 77%
    09:00 +8°C° 0 mm 4 m/s 767 mmHg 70%
    10:00 +11°C° 0 mm 4 m/s 767 mmHg 64%
    11:00 +12°C° 0 mm 4 m/s 767 mmHg 57%
    12:00 +13°C° 0 mm 4 m/s 766 mmHg 55%
    13:00 +14°C° 0 mm 3 m/s 765 mmHg 53%
    14:00 +14°C° 0 mm 3 m/s 765 mmHg 51%
    15:00 +14°C° 0 mm 2 m/s 765 mmHg 57%
    16:00 +13°C° 0 mm 2 m/s 765 mmHg 62%
    17:00 +10°C° 0 mm 2 m/s 765 mmHg 68%
    18:00 +10°C° 0 mm 2 m/s 765 mmHg 71%
    19:00 +9°C° 0 mm 2 m/s 765 mmHg 73%
    20:00 +8°C° 0 mm 2 m/s 765 mmHg 76%
    21:00 +8°C° 0 mm 2 m/s 765 mmHg 77%
    22:00 +8°C° 0 mm 2 m/s 765 mmHg 77%
    23:00 +7°C° 0 mm 2 m/s 765 mmHg 78%

    Poimâine, 19 Iunie, Miercuri

    Timp Temperatura Precipitaţii Vânt Presiune Umiditate
    00:00 +7°C° 0 mm 3 m/s 765 mmHg 78%
    01:00 +7°C° 0 mm 3 m/s 765 mmHg 79%
    02:00 +7°C° 0 mm 3 m/s 765 mmHg 79%
    03:00 +7°C° 0 mm 3 m/s 765 mmHg 80%
    04:00 +5°C° 0 mm 3 m/s 765 mmHg 81%
    05:00 +6°C° 0 mm 2 m/s 764 mmHg 81%
    06:00 +5°C° 0 mm 3 m/s 765 mmHg 81%
    07:00 +5°C° 0 mm 3 m/s 765 mmHg 80%
    08:00 +5°C° 0 mm 3 m/s 765 mmHg 79%
    09:00 +8°C° 0 mm 2 m/s 765 mmHg 72%
    10:00 +10°C° 0 mm 2 m/s 765 mmHg 64%
    11:00 +13°C° 0 mm 2 m/s 765 mmHg 56%
    12:00 +14°C° 0 mm 1 m/s 764 mmHg 54%
    13:00 +15°C° 0 mm 1 m/s 764 mmHg 51%
    14:00 +15°C° 0 mm 1 m/s 763 mmHg 48%
    15:00 +14°C° 0 mm 1 m/s 763 mmHg 54%
    16:00 +13°C° 0 mm 1 m/s 764 mmHg 59%
    17:00 +11°C° 0 mm 1 m/s 764 mmHg 64%
    18:00 +10°C° 0 mm 2 m/s 764 mmHg 66%
    19:00 +9°C° 0 mm 2 m/s 764 mmHg 68%
    20:00 +8°C° 0 mm 2 m/s 764 mmHg 69%
    21:00 +8°C° 0 mm 2 m/s 764 mmHg 69%
    22:00 +7°C° 0 mm 2 m/s 764 mmHg 70%
    23:00 +7°C° 0 mm 2 m/s 764 mmHg 70%

    20 Iunie, Joi

    Timp Temperatura Precipitaţii Vânt Presiune Umiditate
    00:00 +7°C° 0 mm 2 m/s 764 mmHg 70%
    01:00 +7°C° 0 mm 2 m/s 764 mmHg 70%
    02:00 +7°C° 0 mm 2 m/s 764 mmHg 70%
    03:00 +7°C° 0 mm 3 m/s 764 mmHg 70%
    04:00 +7°C° 0 mm 3 m/s 764 mmHg 71%
    05:00 +7°C° 0 mm 3 m/s 764 mmHg 71%
    06:00 +7°C° 0 mm 3 m/s 764 mmHg 70%
    07:00 +7°C° 0 mm 3 m/s 764 mmHg 68%
    08:00 +7°C° 0 mm 3 m/s 764 mmHg 67%
    09:00 +9°C° 0 mm 3 m/s 764 mmHg 61%
    10:00 +11°C° 0 mm 3 m/s 764 mmHg 54%
    11:00 +13°C° 0 mm 4 m/s 763 mmHg 48%
    12:00 +14°C° 0 mm 4 m/s 763 mmHg 47%
    13:00 +14°C° 0 mm 5 m/s 762 mmHg 46%
    14:00 +15°C° 0 mm 5 m/s 761 mmHg 44%
    15:00 +14°C° 0 mm 5 m/s 761 mmHg 48%
    16:00 +13°C° 0 mm 5 m/s 761 mmHg 52%
    17:00 +12°C° 0 mm 5 m/s 761 mmHg 56%
    18:00 +11°C° 0 mm 6 m/s 761 mmHg 57%
    19:00 +11°C° 0 mm 6 m/s 761 mmHg 58%
    20:00 +11°C° 0 mm 6 m/s 761 mmHg 59%
    21:00 +11°C° 0 mm 6 m/s 761 mmHg 56%
    22:00 +11°C° 0 mm 6 m/s 760 mmHg 53%
    23:00 +11°C° 0 mm 7 m/s 760 mmHg 50%

    21 Iunie, Vineri

    Timp Temperatura Precipitaţii Vânt Presiune Umiditate
    00:00 +11°C° 0 mm 6 m/s 760 mmHg 50%
    01:00 +11°C° 0 mm 6 m/s 759 mmHg 49%
    02:00 +11°C° 0 mm 6 m/s 759 mmHg 49%
    03:00 +10°C° 0 mm 6 m/s 758 mmHg 51%
    04:00 +10°C° 0 mm 6 m/s 758 mmHg 53%
    05:00 +10°C° 0 mm 6 m/s 758 mmHg 54%
    06:00 +10°C° 0 mm 6 m/s 758 mmHg 56%
    07:00 +10°C° 0 mm 6 m/s 757 mmHg 58%
    08:00 +10°C° 0 mm 6 m/s 757 mmHg 60%
    09:00 +12°C° 0 mm 5 m/s 757 mmHg 58%
    10:00 +14°C° 0 mm 5 m/s 757 mmHg 56%
    11:00 +16°C° 0 mm 5 m/s 756 mmHg 54%
    12:00 +17°C° 0 mm 5 m/s 756 mmHg 54%
    13:00 +19°C° 0 mm 4 m/s 755 mmHg 54%
    14:00 +20°C° 0 mm 4 m/s 755 mmHg 54%
    15:00 +19°C° 0 mm 4 m/s 755 mmHg 59%
    16:00 +18°C° 0 mm 3 m/s 755 mmHg 64%
    17:00 +17°C° 0 mm 3 m/s 755 mmHg 69%
    18:00 +16°C° 0 mm 3 m/s 755 mmHg 71%
    19:00 +14°C° 0 mm 3 m/s 755 mmHg 73%
    20:00 +13°C° 0 mm 3 m/s 755 mmHg 75%
    21:00 +13°C° 0 mm 3 m/s 755 mmHg 78%
    22:00 +12°C° 0 mm 3 m/s 755 mmHg 81%
    23:00 +12°C° 0 mm 3 m/s 755 mmHg 84%

    22 Iunie, Sâmbătă

    Timp Temperatura Precipitaţii Vânt Presiune Umiditate
    00:00 +12°C° 0 mm 3 m/s 755 mmHg 85%
    01:00 +11°C° 0 mm 3 m/s 755 mmHg 87%
    02:00 +11°C° 0 mm 4 m/s 754 mmHg 88%
    03:00 +11°C° 0 mm 4 m/s 754 mmHg 87%
    04:00 +11°C° 0 mm 4 m/s 754 mmHg 86%
    05:00 +12°C° 0 mm 4 m/s 754 mmHg 85%
    06:00 +12°C° 0 mm 4 m/s 754 mmHg 85%
    07:00 +12°C° 0 mm 5 m/s 754 mmHg 85%
    08:00 +12°C° 0 mm 5 m/s 754 mmHg 86%
    09:00 +14°C° 0 mm 5 m/s 754 mmHg 78%
    10:00 +16°C° 0 mm 6 m/s 753 mmHg 71%
    11:00 +19°C° 0 mm 6 m/s 753 mmHg 64%
    12:00 +20°C° 0 mm 6 m/s 752 mmHg 63%
    13:00 +20°C° 0 mm 5 m/s 751 mmHg 62%
    14:00 +20°C° 0 mm 5 m/s 750 mmHg 61%
    15:00 +19°C° 0.5 mm 5 m/s 750 mmHg 69%
    16:00 +17°C° 0.5 mm 6 m/s 750 mmHg 77%
    17:00 +15°C° 0.5 mm 6 m/s 750 mmHg 85%
    18:00 +15°C° 0.2 mm 6 m/s 750 mmHg 86%
    19:00 +15°C° 0.2 mm 6 m/s 749 mmHg 86%
    20:00 +14°C° 0.2 mm 7 m/s 749 mmHg 87%
    21:00 +14°C° 0.1 mm 7 m/s 749 mmHg 86%
    22:00 +14°C° 0.1 mm 7 m/s 748 mmHg 85%
    23:00 +15°C° 0.1 mm 7 m/s 748 mmHg 85%
    Arată mai mult